QPF
0.00 0.00 0.01 0.01 0.01 0.00 0.01 0.01 0.02 0.01 0.01 0.01 0.01 0.01 0.01 0.01 0.01 0.01 0.01 0.01 0.01 0.01 0.01 0.01 0.01 0.00 0.01 0.01 0.01 0.01 0.01 0.02 0.02 0.01 0.01 0.01 0.02 0.03 0.04 0.05 0.05 0.04 0.04 0.05
0.01 0.00 0.00 0.01 0.00 0.01 0.01 0.01 0.01 0.01 0.01 0.01 0.01 0.01 0.01 0.01 0.01 0.01 0.01 0.01 0.01 0.01 0.00 0.01 0.01 0.01 0.01 0.01 0.01 0.02 0.01 0.02 0.02 0.02 0.01 0.01 0.02 0.02 0.03 0.05 0.05 0.04 0.04 0.04
0.01 0.00 0.01 0.01 0.01 0.01 0.01 0.01 0.01 0.01 0.01 0.01 0.01 0.01 0.02 0.01 0.01 0.01 0.01 0.01 0.01 0.01 0.01 0.01 0.01 0.01 0.01 0.01 0.01 0.02 0.02 0.02 0.03 0.03 0.02 0.02 0.02 0.02 0.02 0.03 0.04 0.04 0.04 0.04
0.02 0.01 0.01 0.01 0.00 0.00 0.01 0.01 0.01 0.01 0.01 0.01 0.01 0.01 0.02 0.02 0.02 0.01 0.01 0.01 0.01 0.01 0.01 0.01 0.01 0.01 0.01 0.01 0.01 0.01 0.02 0.02 0.02 0.03 0.03 0.02 0.02 0.02 0.03 0.03 0.03 0.04 0.04 0.04
0.02 0.02 0.01 0.00 0.00 0.00 0.01 0.00 0.01 0.01 0.01 0.01 0.01 0.01 0.01 0.01 0.01 0.01 0.01 0.01 0.01 0.01 0.01 0.01 0.01 0.01 0.01 0.01 0.01 0.01 0.02 0.01 0.01 0.02 0.02 0.02 0.03 0.03 0.03 0.03 0.03 0.04 0.04 0.03
0.02 0.02 0.01 0.00 0.00 0.00 0.00 0.00 0.00 0.00 0.01 0.01 0.01 0.01 0.01 0.01 0.01 0.01 0.01 0.01 0.01 0.01 0.01 0.01 0.01 0.01 0.01 0.01 0.01 0.01 0.01 0.01 0.01 0.01 0.02 0.02 0.02 0.02 0.03 0.03 0.03 0.03 0.03 0.02
0.02 0.02 0.01 0.00 0.00 0.00 0.00 0.00 0.00 0.00 0.01 0.01 0.01 0.01 0.01 0.01 0.01 0.01 0.01 0.01 0.01 0.01 0.01 0.01 0.01 0.01 0.01 0.01 0.01 0.01 0.01 0.01 0.01 0.01 0.01 0.02 0.02 0.02 0.02 0.02 0.02 0.02 0.02 0.01
0.01 0.02 0.01 0.00 0.00 0.00 0.00 0.00 0.00 0.00 0.01 0.01 0.01 0.01 0.01 0.01 0.01 0.01 0.01 0.01 0.01 0.01 0.01 0.01 0.01 0.01 0.01 0.01 0.01 0.01 0.01 0.01 0.01 0.02 0.01 0.01 0.02 0.02 0.02 0.02 0.02 0.01 0.01 0.01
0.01 0.01 0.01 0.01 0.01 0.01 0.01 0.00 0.00 0.01 0.01 0.01 0.01 0.01 0.01 0.01 0.01 0.01 0.01 0.01 0.01 0.01 0.01 0.01 0.01 0.01 0.01 0.01 0.01 0.01 0.01 0.01 0.01 0.02 0.02 0.02 0.02 0.02 0.01 0.01 0.01 0.01 0.01 0.01
0.01 0.01 0.01 0.01 0.01 0.01 0.00 0.00 0.00 0.00 0.01 0.01 0.01 0.01 0.01 0.01 0.01 0.01 0.01 0.01 0.01 0.01 0.01 0.01 0.01 0.01 0.01 0.01 0.01 0.01 0.01 0.01 0.01 0.02 0.02 0.02 0.02 0.02 0.01 0.01 0.01 0.01 0.01 0.00
0.01 0.01 0.01 0.01 0.00 0.00 0.00 0.00 0.00 0.00 0.00 0.00 0.00 0.00 0.01 0.01 0.01 0.01 0.01 0.01 0.01 0.01 0.01 0.01 0.01 0.01 0.01 0.01 0.01 0.01 0.01 0.01 0.01 0.01 0.02 0.02 0.02 0.03 0.03 0.02 0.02 0.01 0.01 0.01
0.01 0.01 0.01 0.00 0.00 0.00 0.00 0.00 0.00 0.00 0.00 0.00 0.00 0.01 0.01 0.01 0.01 0.01 0.01 0.01 0.01 0.01 0.01 0.01 0.01 0.01 0.01 0.01 0.01 0.01 0.01 0.01 0.01 0.01 0.01 0.02 0.02 0.02 0.02 0.02 0.01 0.01 0.01 0.01
0.01 0.01 0.01 0.00 0.00 0.00 0.00 0.00 0.00 0.00 0.00 0.00 0.00 0.00 0.01 0.01 0.01 0.01 0.01 0.01 0.01 0.01 0.01 0.01 0.01 0.00 0.00 0.00 0.00 0.01 0.01 0.01 0.01 0.01 0.01 0.01 0.01 0.01 0.01 0.01 0.01 0.01 0.01 0.01
0.01 0.01 0.01 0.00 0.00 0.00 0.01 0.01 0.00 0.00 0.00 0.00 0.00 0.00 0.00 0.00 0.00 0.00 0.01 0.01 0.01 0.01 0.01 0.00 0.00 0.00 0.00 0.00 0.00 0.01 0.01 0.01 0.01 0.01 0.01 0.01 0.01 0.01 0.01 0.01 0.01 0.01 0.01 0.01
0.01 0.01 0.01 0.01 0.00 0.00 0.00 0.00 0.00 0.00 0.00 0.01 0.01 0.01 0.01 0.01 0.01 0.01 0.01 0.00 0.00 0.00 0.00 0.00 0.00 0.00 0.00 0.00 0.01 0.01 0.01 0.01 0.01 0.01 0.01 0.01 0.01 0.01 0.01 0.01 0.01 0.01 0.01 0.01
0.01 0.01 0.01 0.00 0.00 0.00 0.00 0.01 0.01 0.01 0.01 0.01 0.01 0.01 0.01 0.01 0.01 0.01 0.00 0.00 0.00 0.00 0.00 0.00 0.00 0.00 0.00 0.01 0.01 0.01 0.01 0.01 0.01 0.01 0.01 0.01 0.01 0.01 0.01 0.01 0.01 0.01 0.01 0.01
0.01 0.01 0.01 0.01 0.01 0.01 0.01 0.01 0.01 0.01 0.01 0.01 0.01 0.01 0.01 0.01 0.01 0.00 0.00 0.00 0.00 0.00 0.00 0.00 0.00 0.00 0.00 0.00 0.01 0.01 0.01 0.01 0.01 0.01 0.01 0.01 0.01 0.01 0.01 0.01 0.01 0.01 0.01 0.01
0.02 0.01 0.01 0.01 0.01 0.01 0.01 0.01 0.01 0.01 0.01 0.01 0.01 0.01 0.01 0.01 0.01 0.01 0.00 0.00 0.00 0.00 0.00 0.00 0.01 0.01 0.00 0.00 0.01 0.01 0.01 0.01 0.01 0.01 0.01 0.01 0.01 0.01 0.01 0.01 0.01 0.01 0.01 0.01
0.01 0.01 0.01 0.01 0.01 0.01 0.01 0.01 0.01 0.01 0.01 0.01 0.01 0.01 0.01 0.01 0.01 0.01 0.00 0.00 0.00 0.01 0.01 0.01 0.01 0.01 0.00 0.00 0.01 0.01 0.01 0.01 0.01 0.01 0.01 0.01 0.01 0.01 0.01 0.01 0.01 0.01 0.01 0.01
0.01 0.01 0.01 0.01 0.01 0.01 0.01 0.01 0.01 0.01 0.01 0.01 0.01 0.01 0.00 0.01 0.01 0.01 0.00 0.01 0.01 0.01 0.01 0.01 0.01 0.01 0.00 0.00 0.01 0.01 0.01 0.01 0.01 0.01 0.01 0.01 0.01 0.01 0.01 0.01 0.01 0.01 0.01 0.01
0.01 0.01 0.01 0.01 0.01 0.01 0.01 0.01 0.01 0.01 0.01 0.01 0.01 0.01 0.01 0.01 0.01 0.01 0.01 0.01 0.01 0.01 0.01 0.01 0.01 0.00 0.00 0.01 0.01 0.01 0.01 0.01 0.01 0.00 0.00 0.00 0.01 0.01 0.01 0.01 0.01 0.01 0.01 0.01
0.01 0.01 0.01 0.01 0.01 0.01 0.01 0.01 0.01 0.01 0.01 0.01 0.01 0.01 0.01 0.01 0.01 0.01 0.01 0.01 0.01 0.01 0.01 0.01 0.01 0.01 0.02 0.02 0.01 0.01 0.01 0.01 0.00 0.00 0.00 0.01 0.01 0.01 0.01 0.01 0.01 0.01 0.01 0.01
0.01 0.01 0.01 0.01 0.01 0.01 0.01 0.01 0.01 0.01 0.01 0.01 0.01 0.01 0.01 0.01 0.01 0.01 0.01 0.01 0.01 0.01 0.01 0.01 0.01 0.02 0.03 0.02 0.01 0.01 0.01 0.00 0.00 0.00 0.00 0.01 0.01 0.01 0.01 0.01 0.01 0.01 0.01 0.01
0.01 0.01 0.01 0.01 0.01 0.01 0.01 0.01 0.01 0.01 0.00 0.00 0.00 0.01 0.01 0.01 0.01 0.01 0.01 0.01 0.01 0.01 0.01 0.01 0.01 0.02 0.02 0.01 0.01 0.01 0.01 0.01 0.00 0.01 0.01 0.01 0.01 0.01 0.01 0.01 0.01 0.01 0.01 0.01
0.01 0.01 0.01 0.01 0.01 0.01 0.01 0.01 0.01 0.00 0.00 0.00 0.01 0.01 0.01 0.01 0.01 0.01 0.01 0.01 0.01 0.01 0.01 0.01 0.01 0.01 0.01 0.01 0.01 0.01 0.01 0.01 0.01 0.01 0.01 0.01 0.01 0.01 0.01 0.01 0.01 0.01 0.01 0.01
0.01 0.01 0.01 0.01 0.01 0.01 0.01 0.01 0.01 0.01 0.00 0.01 0.01 0.01 0.01 0.01 0.01 0.01 0.01 0.01 0.01 0.01 0.01 0.01 0.01 0.01 0.01 0.01 0.01 0.01 0.01 0.01 0.01 0.01 0.01 0.01 0.01 0.01 0.01 0.01 0.01 0.01 0.01 0.01
0.01 0.01 0.01 0.01 0.01 0.01 0.01 0.01 0.01 0.01 0.01 0.01 0.01 0.01 0.01 0.01 0.01 0.01 0.01 0.01 0.01 0.01 0.01 0.01 0.01 0.01 0.01 0.02 0.02 0.02 0.01 0.01 0.01 0.01 0.01 0.01 0.01 0.01 0.01 0.01 0.01 0.01 0.01 0.01
MSLP
1018.92 1019.42 1019.92 1020.33 1020.60 1020.71 1020.65 1020.48 1020.23 1019.98 1019.76 1019.60 1019.46 1019.31 1019.06 1018.61 1017.89 1016.83 1015.43 1013.71 1011.74 1009.65 1007.57 1005.62 1003.93 1002.55 1001.54 1000.89 1000.55 1000.44 1000.48 1000.62 1000.79 1000.96 1001.13 1001.31 1001.53 1001.83 1002.25 1002.79 1003.48 1004.31 1005.28 1006.36
1020.46 1021.22 1022.00 1022.68 1023.19 1023.47 1023.52 1023.35 1023.02 1022.58 1022.11 1021.64 1021.20 1020.75 1020.25 1019.63 1018.83 1017.77 1016.44 1014.83 1013.00 1011.03 1009.03 1007.12 1005.39 1003.94 1002.80 1002.00 1001.50 1001.26 1001.21 1001.28 1001.44 1001.62 1001.83 1002.06 1002.33 1002.65 1003.07 1003.59 1004.24 1005.01 1005.90 1006.90
1022.08 1022.93 1023.79 1024.58 1025.18 1025.53 1025.61 1025.41 1024.99 1024.41 1023.75 1023.05 1022.37 1021.71 1021.05 1020.33 1019.49 1018.47 1017.24 1015.77 1014.10 1012.28 1010.40 1008.55 1006.83 1005.34 1004.11 1003.21 1002.59 1002.25 1002.12 1002.16 1002.31 1002.53 1002.79 1003.08 1003.40 1003.77 1004.20 1004.71 1005.32 1006.04 1006.87 1007.79
1023.75 1024.50 1025.29 1026.02 1026.58 1026.90 1026.94 1026.70 1026.21 1025.53 1024.74 1023.91 1023.09 1022.30 1021.54 1020.77 1019.94 1018.98 1017.86 1016.54 1015.02 1013.36 1011.60 1009.85 1008.17 1006.68 1005.41 1004.44 1003.75 1003.34 1003.17 1003.19 1003.36 1003.61 1003.93 1004.28 1004.67 1005.08 1005.54 1006.06 1006.66 1007.34 1008.11 1008.97
1025.42 1025.95 1026.53 1027.08 1027.50 1027.72 1027.68 1027.39 1026.86 1026.14 1025.30 1024.41 1023.52 1022.67 1021.87 1021.08 1020.27 1019.38 1018.35 1017.15 1015.78 1014.26 1012.63 1010.98 1009.37 1007.91 1006.65 1005.65 1004.94 1004.50 1004.32 1004.34 1004.53 1004.82 1005.20 1005.61 1006.05 1006.51 1007.01 1007.54 1008.13 1008.78 1009.51 1010.32
1027.02 1027.26 1027.57 1027.88 1028.11 1028.19 1028.07 1027.73 1027.19 1026.47 1025.64 1024.74 1023.85 1022.99 1022.17 1021.38 1020.58 1019.73 1018.77 1017.67 1016.41 1015.01 1013.50 1011.96 1010.44 1009.04 1007.83 1006.85 1006.15 1005.72 1005.54 1005.57 1005.79 1006.12 1006.54 1007.00 1007.49 1007.99 1008.50 1009.05 1009.63 1010.26 1010.96 1011.73
1028.46 1028.41 1028.43 1028.50 1028.54 1028.49 1028.30 1027.94 1027.41 1026.73 1025.94 1025.09 1024.22 1023.36 1022.54 1021.75 1020.95 1020.11 1019.18 1018.14 1016.96 1015.66 1014.27 1012.83 1011.43 1010.12 1008.97 1008.06 1007.39 1006.99 1006.83 1006.89 1007.13 1007.48 1007.93 1008.41 1008.92 1009.44 1009.97 1010.52 1011.10 1011.72 1012.39 1013.11
1029.67 1029.36 1029.14 1029.00 1028.89 1028.74 1028.51 1028.16 1027.67 1027.06 1026.33 1025.54 1024.70 1023.86 1023.04 1022.23 1021.41 1020.56 1019.64 1018.63 1017.52 1016.30 1015.01 1013.69 1012.40 1011.21 1010.16 1009.32 1008.71 1008.35 1008.22 1008.29 1008.53 1008.90 1009.34 1009.83 1010.34 1010.86 1011.38 1011.92 1012.49 1013.09 1013.73 1014.42
1030.57 1030.07 1029.69 1029.41 1029.20 1028.99 1028.76 1028.44 1028.02 1027.48 1026.84 1026.10 1025.31 1024.49 1023.66 1022.83 1021.98 1021.11 1020.20 1019.21 1018.15 1017.01 1015.83 1014.63 1013.46 1012.38 1011.44 1010.69 1010.15 1009.82 1009.71 1009.79 1010.02 1010.36 1010.78 1011.24 1011.73 1012.23 1012.73 1013.26 1013.81 1014.39 1015.01 1015.67
1031.12 1030.54 1030.07 1029.73 1029.47 1029.26 1029.05 1028.79 1028.44 1027.99 1027.42 1026.75 1026.00 1025.21 1024.38 1023.53 1022.67 1021.79 1020.88 1019.92 1018.92 1017.87 1016.79 1015.71 1014.67 1013.71 1012.87 1012.20 1011.72 1011.42 1011.31 1011.37 1011.57 1011.87 1012.24 1012.66 1013.10 1013.57 1014.05 1014.55 1015.08 1015.64 1016.24 1016.88
1031.35 1030.76 1030.29 1029.95 1029.71 1029.53 1029.37 1029.17 1028.89 1028.51 1028.02 1027.42 1026.72 1025.96 1025.15 1024.31 1023.46 1022.60 1021.71 1020.81 1019.88 1018.92 1017.95 1016.99 1016.06 1015.21 1014.47 1013.86 1013.41 1013.13 1013.01 1013.03 1013.17 1013.42 1013.73 1014.09 1014.49 1014.92 1015.36 1015.84 1016.35 1016.89 1017.48 1018.09
1031.34 1030.82 1030.40 1030.11 1029.91 1029.79 1029.68 1029.54 1029.33 1029.02 1028.60 1028.06 1027.42 1026.71 1025.95 1025.16 1024.35 1023.53 1022.71 1021.88 1021.03 1020.17 1019.31 1018.46 1017.64 1016.88 1016.20 1015.64 1015.21 1014.92 1014.76 1014.73 1014.82 1015.00 1015.25 1015.56 1015.91 1016.30 1016.72 1017.17 1017.66 1018.20 1018.77 1019.36
1031.24 1030.82 1030.49 1030.27 1030.13 1030.06 1030.00 1029.91 1029.76 1029.50 1029.14 1028.67 1028.10 1027.46 1026.77 1026.05 1025.31 1024.58 1023.84 1023.10 1022.35 1021.59 1020.83 1020.07 1019.34 1018.64 1018.01 1017.47 1017.04 1016.73 1016.53 1016.46 1016.49 1016.61 1016.81 1017.08 1017.39 1017.75 1018.15 1018.59 1019.06 1019.58 1020.13 1020.71
1031.18 1030.88 1030.65 1030.51 1030.44 1030.41 1030.38 1030.33 1030.20 1029.99 1029.68 1029.27 1028.77 1028.21 1027.61 1026.98 1026.34 1025.71 1025.07 1024.43 1023.77 1023.11 1022.43 1021.75 1021.08 1020.43 1019.82 1019.29 1018.85 1018.51 1018.28 1018.17 1018.15 1018.24 1018.40 1018.64 1018.93 1019.27 1019.66 1020.09 1020.55 1021.05 1021.58 1022.14
1031.28 1031.10 1030.97 1030.90 1030.88 1030.88 1030.87 1030.82 1030.71 1030.52 1030.25 1029.89 1029.47 1028.99 1028.48 1027.95 1027.42 1026.88 1026.34 1025.79 1025.23 1024.64 1024.03 1023.40 1022.77 1022.15 1021.56 1021.03 1020.58 1020.23 1019.98 1019.84 1019.80 1019.87 1020.02 1020.25 1020.53 1020.87 1021.25 1021.66 1022.11 1022.58 1023.08 1023.60
1031.59 1031.52 1031.49 1031.48 1031.49 1031.49 1031.48 1031.43 1031.31 1031.13 1030.88 1030.57 1030.20 1029.80 1029.37 1028.93 1028.49 1028.05 1027.60 1027.13 1026.63 1026.10 1025.54 1024.95 1024.35 1023.75 1023.17 1022.66 1022.21 1021.86 1021.61 1021.47 1021.44 1021.50 1021.66 1021.89 1022.18 1022.51 1022.88 1023.28 1023.70 1024.13 1024.58 1025.05
1032.09 1032.13 1032.16 1032.20 1032.23 1032.23 1032.20 1032.13 1032.00 1031.81 1031.57 1031.28 1030.95 1030.61 1030.25 1029.89 1029.53 1029.15 1028.77 1028.35 1027.90 1027.42 1026.89 1026.33 1025.76 1025.19 1024.64 1024.14 1023.72 1023.39 1023.17 1023.05 1023.04 1023.13 1023.30 1023.53 1023.83 1024.15 1024.50 1024.87 1025.25 1025.64 1026.03 1026.42
1032.70 1032.82 1032.92 1032.99 1033.02 1033.01 1032.96 1032.85 1032.70 1032.49 1032.25 1031.98 1031.69 1031.38 1031.08 1030.77 1030.46 1030.13 1029.79 1029.42 1029.01 1028.55 1028.06 1027.53 1026.99 1026.46 1025.95 1025.50 1025.12 1024.84 1024.65 1024.58 1024.60 1024.71 1024.90 1025.14 1025.43 1025.74 1026.06 1026.38 1026.71 1027.03 1027.35 1027.67
1033.30 1033.49 1033.62 1033.71 1033.74 1033.71 1033.63 1033.50 1033.32 1033.10 1032.86 1032.60 1032.33 1032.05 1031.78 1031.51 1031.23 1030.95 1030.63 1030.29 1029.91 1029.48 1029.03 1028.54 1028.05 1027.57 1027.12 1026.73 1026.42 1026.19 1026.06 1026.03 1026.08 1026.21 1026.41 1026.65 1026.91 1027.19 1027.47 1027.74 1028.01 1028.26 1028.51 1028.76
1033.77 1034.00 1034.16 1034.25 1034.27 1034.22 1034.12 1033.97 1033.77 1033.55 1033.31 1033.06 1032.81 1032.57 1032.32 1032.08 1031.84 1031.57 1031.29 1030.97 1030.62 1030.24 1029.82 1029.39 1028.96 1028.55 1028.17 1027.86 1027.61 1027.45 1027.37 1027.38 1027.45 1027.59 1027.78 1027.99 1028.22 1028.45 1028.67 1028.89 1029.09 1029.28 1029.47 1029.65
1034.03 1034.27 1034.43 1034.51 1034.52 1034.46 1034.35 1034.18 1033.99 1033.78 1033.55 1033.33 1033.11 1032.90 1032.69 1032.49 1032.27 1032.04 1031.78 1031.50 1031.18 1030.84 1030.48 1030.11 1029.75 1029.41 1029.11 1028.87 1028.69 1028.58 1028.55 1028.57 1028.66 1028.78 1028.94 1029.11 1029.29 1029.47 1029.63 1029.79 1029.94 1030.08 1030.21 1030.35
1034.06 1034.28 1034.43 1034.49 1034.48 1034.41 1034.29 1034.14 1033.96 1033.78 1033.59 1033.41 1033.24 1033.07 1032.91 1032.74 1032.56 1032.36 1032.14 1031.89 1031.61 1031.32 1031.01 1030.71 1030.41 1030.15 1029.92 1029.74 1029.62 1029.55 1029.54 1029.57 1029.64 1029.74 1029.86 1029.98 1030.10 1030.22 1030.33 1030.44 1030.54 1030.64 1030.75 1030.86
1033.90 1034.08 1034.18 1034.22 1034.19 1034.12 1034.01 1033.88 1033.74 1033.60 1033.47 1033.35 1033.23 1033.12 1033.01 1032.88 1032.74 1032.58 1032.39 1032.18 1031.94 1031.70 1031.44 1031.19 1030.96 1030.75 1030.58 1030.45 1030.37 1030.32 1030.32 1030.34 1030.39 1030.45 1030.51 1030.58 1030.65 1030.71 1030.78 1030.85 1030.92 1031.00 1031.09 1031.19
1033.60 1033.72 1033.77 1033.78 1033.73 1033.66 1033.57 1033.48 1033.39 1033.32 1033.25 1033.20 1033.15 1033.10 1033.04 1032.96 1032.86 1032.73 1032.57 1032.39 1032.19 1031.97 1031.75 1031.55 1031.36 1031.19 1031.06 1030.96 1030.90 1030.86 1030.85 1030.86 1030.87 1030.89 1030.92 1030.93 1030.96 1030.98 1031.00 1031.04 1031.10 1031.17 1031.25 1031.35
1033.25 1033.30 1033.30 1033.27 1033.21 1033.15 1033.09 1033.05 1033.02 1033.01 1033.01 1033.03 1033.05 1033.05 1033.04 1033.00 1032.93 1032.82 1032.68 1032.52 1032.33 1032.13 1031.94 1031.75 1031.59 1031.45 1031.34 1031.26 1031.21 1031.18 1031.16 1031.14 1031.13 1031.12 1031.10 1031.08 1031.07 1031.06 1031.06 1031.07 1031.11 1031.17 1031.24 1031.33
1032.90 1032.88 1032.84 1032.78 1032.72 1032.67 1032.65 1032.65 1032.68 1032.73 1032.80 1032.88 1032.95 1033.00 1033.02 1033.00 1032.95 1032.85 1032.71 1032.54 1032.36 1032.16 1031.97 1031.80 1031.65 1031.52 1031.43 1031.36 1031.31 1031.28 1031.25 1031.23 1031.20 1031.17 1031.13 1031.08 1031.04 1031.00 1030.98 1030.97 1030.99 1031.02 1031.07 1031.13
1032.57 1032.50 1032.42 1032.34 1032.29 1032.26 1032.27 1032.31 1032.39 1032.50 1032.62 1032.74 1032.84 1032.92 1032.95 1032.94 1032.88 1032.78 1032.63 1032.45 1032.25 1032.05 1031.86 1031.69 1031.54 1031.43 1031.34 1031.28 1031.24 1031.22 1031.20 1031.17 1031.14 1031.09 1031.04 1030.98 1030.91 1030.85 1030.80 1030.76 1030.73 1030.72 1030.72 1030.73
Thickness
5321 5325 5321 5321 5324 5319 5317 5321 5324 5334 5336 5347 5346 5343 5342 5342 5342 5344 5346 5348 5350 5351 5352 5354 5357 5360 5363 5366 5368 5371 5372 5374 5376 5377 5378 5380 5381 5382 5383 5384 5384 5386 5387 5387
5311 5316 5312 5316 5319 5316 5315 5315 5313 5320 5328 5333 5329 5328 5329 5331 5333 5334 5335 5337 5338 5339 5340 5341 5344 5347 5350 5353 5355 5357 5359 5361 5363 5364 5365 5367 5368 5369 5370 5371 5372 5373 5374 5375
5302 5298 5304 5306 5308 5309 5305 5302 5304 5312 5324 5321 5318 5320 5319 5321 5322 5323 5324 5325 5326 5327 5329 5331 5333 5336 5338 5341 5343 5345 5347 5348 5350 5352 5353 5355 5356 5357 5357 5358 5359 5360 5361 5362
5288 5287 5290 5310 5300 5301 5301 5299 5295 5301 5307 5307 5306 5305 5305 5307 5308 5310 5312 5313 5315 5316 5318 5320 5322 5325 5327 5330 5331 5333 5335 5336 5338 5339 5341 5342 5343 5344 5344 5345 5346 5347 5347 5349
5277 5273 5282 5297 5294 5285 5288 5292 5290 5290 5294 5293 5292 5295 5298 5299 5299 5300 5301 5302 5304 5306 5308 5310 5312 5314 5316 5318 5319 5321 5323 5324 5326 5327 5328 5330 5330 5331 5331 5332 5333 5334 5335 5335
5267 5272 5276 5293 5284 5276 5281 5286 5285 5281 5282 5282 5284 5288 5294 5292 5290 5291 5292 5293 5294 5296 5297 5299 5301 5302 5304 5306 5307 5309 5311 5312 5313 5315 5316 5317 5318 5318 5318 5319 5320 5321 5321 5322
5262 5261 5270 5272 5268 5272 5279 5284 5275 5272 5273 5271 5270 5276 5279 5279 5279 5280 5281 5282 5283 5285 5287 5288 5289 5291 5293 5295 5296 5297 5298 5300 5301 5302 5304 5305 5305 5305 5305 5306 5306 5307 5308 5309
5252 5254 5268 5262 5259 5263 5264 5262 5261 5262 5262 5261 5262 5265 5266 5268 5269 5270 5270 5272 5273 5274 5276 5278 5279 5280 5282 5283 5284 5284 5286 5287 5288 5290 5291 5292 5292 5292 5293 5293 5293 5293 5294 5295
5254 5262 5257 5249 5251 5251 5250 5250 5251 5251 5252 5251 5252 5254 5256 5256 5257 5258 5260 5261 5262 5263 5265 5266 5266 5267 5269 5270 5271 5273 5274 5275 5276 5278 5279 5279 5280 5280 5280 5281 5281 5282 5282 5283
5240 5246 5246 5243 5242 5242 5241 5241 5242 5242 5241 5242 5242 5243 5244 5245 5247 5248 5250 5250 5251 5252 5253 5254 5255 5256 5257 5258 5260 5261 5262 5263 5264 5265 5266 5267 5268 5269 5269 5270 5270 5271 5271 5271
5233 5236 5236 5241 5239 5238 5237 5236 5235 5235 5234 5234 5234 5234 5234 5235 5237 5238 5241 5240 5240 5241 5242 5243 5244 5245 5246 5247 5249 5249 5250 5251 5252 5253 5254 5255 5256 5257 5258 5259 5260 5260 5261 5260
5238 5235 5230 5234 5234 5232 5231 5231 5230 5228 5228 5228 5227 5226 5227 5227 5228 5228 5229 5230 5230 5231 5232 5233 5234 5235 5236 5237 5238 5238 5239 5240 5241 5241 5242 5243 5244 5244 5246 5247 5248 5249 5250 5250
5227 5226 5223 5225 5225 5225 5224 5225 5224 5222 5221 5220 5220 5219 5218 5219 5220 5219 5219 5220 5220 5221 5222 5223 5224 5225 5226 5227 5228 5228 5229 5229 5230 5230 5231 5231 5232 5233 5233 5234 5235 5236 5237 5238
5219 5216 5218 5219 5218 5218 5217 5217 5216 5215 5214 5213 5212 5211 5210 5210 5210 5210 5210 5211 5211 5212 5213 5213 5214 5215 5216 5217 5217 5218 5218 5219 5220 5220 5220 5220 5221 5221 5221 5222 5222 5222 5224 5225
5215 5212 5212 5212 5212 5212 5211 5210 5209 5208 5207 5205 5204 5203 5202 5202 5201 5201 5201 5202 5202 5202 5203 5203 5204 5205 5205 5206 5207 5207 5208 5209 5209 5209 5209 5210 5210 5210 5209 5209 5209 5210 5211 5211
5210 5208 5206 5206 5207 5206 5204 5202 5201 5200 5199 5197 5196 5195 5194 5193 5192 5192 5192 5192 5192 5192 5193 5193 5194 5195 5195 5196 5196 5197 5198 5200 5201 5200 5199 5199 5199 5199 5199 5198 5198 5198 5199 5199
5203 5204 5202 5200 5199 5197 5195 5194 5193 5192 5190 5189 5187 5186 5186 5185 5184 5183 5183 5182 5182 5182 5183 5183 5184 5185 5186 5186 5186 5187 5187 5188 5190 5189 5188 5188 5188 5188 5188 5188 5187 5187 5187 5188
5196 5195 5193 5191 5190 5188 5187 5186 5185 5184 5182 5181 5179 5178 5176 5175 5175 5174 5174 5174 5174 5174 5174 5175 5176 5176 5176 5176 5176 5177 5177 5177 5177 5177 5177 5177 5177 5177 5177 5177 5176 5176 5176 5177
5190 5188 5186 5185 5182 5181 5179 5178 5177 5176 5174 5173 5171 5170 5168 5167 5166 5166 5165 5165 5165 5165 5166 5167 5168 5168 5167 5167 5168 5168 5168 5167 5167 5167 5166 5167 5167 5167 5167 5166 5166 5166 5167 5167
5184 5182 5180 5178 5175 5174 5172 5171 5170 5169 5167 5166 5164 5163 5161 5160 5159 5158 5157 5157 5157 5157 5158 5159 5159 5159 5159 5159 5160 5159 5158 5158 5157 5157 5156 5156 5157 5157 5157 5157 5157 5157 5158 5158
5177 5175 5173 5170 5168 5167 5165 5164 5162 5161 5160 5159 5157 5155 5154 5153 5151 5150 5150 5150 5151 5151 5151 5152 5151 5151 5151 5151 5152 5150 5150 5149 5148 5148 5148 5147 5148 5148 5148 5148 5149 5149 5150 5150
5168 5166 5164 5163 5161 5159 5158 5156 5154 5153 5152 5151 5149 5147 5146 5145 5144 5143 5142 5142 5144 5144 5144 5143 5143 5144 5144 5144 5142 5141 5141 5140 5140 5139 5139 5139 5139 5140 5140 5140 5140 5141 5142 5142
5160 5158 5157 5155 5153 5151 5149 5148 5147 5145 5144 5143 5141 5140 5139 5138 5137 5136 5136 5137 5136 5137 5137 5136 5136 5137 5137 5134 5133 5133 5132 5132 5131 5131 5131 5131 5132 5132 5132 5133 5133 5134 5134 5135
5153 5151 5149 5146 5145 5143 5142 5141 5140 5138 5137 5136 5135 5134 5132 5132 5132 5130 5130 5130 5131 5131 5129 5129 5130 5129 5128 5125 5125 5124 5124 5124 5124 5124 5124 5124 5124 5124 5125 5126 5126 5127 5127 5128
5145 5143 5141 5139 5138 5137 5136 5134 5133 5132 5130 5129 5129 5128 5127 5126 5125 5125 5124 5123 5123 5123 5122 5121 5121 5121 5118 5117 5117 5117 5117 5117 5118 5118 5118 5117 5117 5118 5118 5119 5120 5120 5121 5121
5138 5137 5135 5134 5132 5131 5129 5128 5126 5125 5125 5124 5123 5122 5121 5120 5119 5118 5117 5116 5115 5116 5115 5113 5112 5111 5111 5110 5110 5110 5111 5111 5111 5111 5111 5111 5111 5111 5112 5112 5113 5114 5114 5115
5132 5130 5128 5127 5126 5124 5122 5121 5119 5118 5117 5117 5116 5116 5115 5114 5113 5112 5111 5110 5109 5108 5107 5106 5106 5105 5104 5104 5104 5104 5104 5104 5105 5105 5105 5105 5105 5105 5105 5106 5107 5107 5108 5109